Regional Weather Roundup
Issued by NWS

Home | Current Version | Previous Version | Text Only | Print | Product List | Glossary On
Versions: 1 2 3 4 5 6 7 8 9 10 11 12 13 14 15 16 17 18 19 20 21 22 23 24 25 26 27 28 29 30 31 32 33 34 35 36 37 38 39 40 41 42 43 44 45 46 47 48 49 50
000
ASUS46 KSEW 231610
RWRWA

WASHINGTON REGIONAL WEATHER ROUNDUP
NATIONAL WEATHER SERVICE SEATTLE WA
900 AM PDT SAT JUL 23 2016

NOTE:"FAIR" INDICATES FEW OR NO CLOUDS BELOW 12,000 FEET WITH NO
SIGNIFICANT WEATHER AND/OR OBSTRUCTIONS TO VISIBILITY.

WAZ505-507>509-231700-
SEATTLE, TACOMA, EVERETT, AND VICINITY

CITY           SKY/WX    TMP DP  RH WIND       PRES   REMARKS
EVERETT        CLOUDY    59  53  80 E5        30.29R
BOEING FIELD   CLOUDY    63  54  72 NE5       30.28R
RENTON         CLOUDY    62  55  77 CALM      30.27S
SEATAC AIRPORT CLOUDY    62  55  77 NW3       30.29R
JBLM-MCCHORD   CLOUDY    62  56  82 VRB1      30.28R
PUYALLUP       CLOUDY    61  55  82 CALM      30.28S
BREMERTON      CLOUDY    59  55  88 CALM      30.31R
JBLM-FT LEWIS  CLOUDY    61  56  85 N1        30.27R
TACOMA NARROWS PTSUNNY   60  53  77 CALM      30.29R
$$

WAZ001-503-506-510-514-515-231700-
NORTH INTERIOR

CITY           SKY/WX    TMP DP  RH WIND       PRES   REMARKS
BELLINGHAM     MOSUNNY   62  55  77 S10       30.25R
FRIDAY HARBOR  CLOUDY    60  53  77 SE3       30.26R
EASTSOUND      SUNNY     61  54  77 S7        30.23R
PORT ANGELES   MOSUNNY   64  50  60 NW9       30.27R
EDIZ HOOK      FAIR      59  51  75 W7        30.27R
PORT TOWNSEND  CLOUDY    61  55  82 SE5       30.27S
NAS WHIDBEY    PTSUNNY   61  52  72 W6        30.31R
ARLINGTON      CLOUDY    61  50  67 CALM      30.30R
BURLINGTON     MOSUNNY   61  55  82 S6        30.27R HAZE
$$

WAZ020-022-039-040-504-511-512-231700-
SOUTHWEST INTERIOR

CITY           SKY/WX    TMP DP  RH WIND       PRES   REMARKS
SHELTON        CLOUDY    60  55  83 CALM      30.25S
OLYMPIA        PTSUNNY   62  54  74 VRB3      30.27S
CHEHALIS       CLOUDY    64  57  77 S5        30.28R
KELSO          CLOUDY    63  54  72 VRB6      30.29R
VANCOUVER      CLOUDY    62  54  74 W6        30.27S
SCAPPOOSE, OR  CLOUDY    64  54  69 VRB3      30.27R
PORTLAND, OR   CLOUDY    63  54  72 NW6       30.28R
$$

WAZ021-516-517-231700-
WASHINGTON COAST

CITY           SKY/WX    TMP DP  RH WIND       PRES   REMARKS
FORKS          CLOUDY    59  56  89 NW6       30.29R
HOQUIAM        SUNNY     63  54  72 W8        30.28
ASTORIA, OR    CLOUDY    62  56  80 N7        30.28R
$$

WAZ019-023-024-040-518-519-231700-
CASCADE MOUNTAINS AND COLUMBIA GORGE

CITY           SKY/WX    TMP DP  RH WIND       PRES   REMARKS
STAMPEDE PASS  CLOUDY    47  45  93 VRB7      30.28R
TROUTDALE, OR  CLOUDY    63  56  78 CALM      30.27S
THE DALLES, OR SUNNY     70  48  45 NW16G23   30.19F
$$

WAZ026-027-041>044-520-521-231700-
EAST SLOPES

CITY           SKY/WX    TMP DP  RH WIND       PRES   REMARKS
OMAK           SUNNY     66  45  46 VRB3      30.15S
WENATCHEE      SUNNY     68  45  43 W8        30.16S
ELLENSBURG     SUNNY     67  48  50 NW17      30.19R
YAKIMA         SUNNY     70  46  42 VRB5      30.19S
$$

WAZ028-034-035-231700-
COLUMBIA BASIN

CITY           SKY/WX    TMP DP  RH WIND       PRES   REMARKS
EPHRATA        SUNNY     71  43  36 N7        30.15R
MOSES LAKE     SUNNY     69  48  47 S6        30.17R
PASCO          SUNNY     70  50  49 S6        30.18S
HERMISTON, OR  MOSUNNY   68  49  50 SW9       30.19S
$$

WAZ036>038-231700-
NORTHEAST WASHINGTON

CITY           SKY/WX    TMP DP  RH WIND       PRES   REMARKS
SPOKANE GEIGER MOSUNNY   61  46  57 S10       30.19R
SPOKANE FELTS  MOSUNNY   62  48  60 S10       30.20R
FAIRCHILD AFB  SUNNY     62  47  58 S8        30.18R
COEURDALENE,ID SUNNY     63  48  59 S12       30.18R
DEER PARK      SUNNY     58  50  75 S7        30.19S
$$

WAZ029>033-231700-
SOUTHEAST WASHINGTON

CITY           SKY/WX    TMP DP  RH WIND       PRES   REMARKS
PULLMAN        SUNNY     63  47  55 W9        30.23R
LEWISTON, ID   SUNNY     69  47  45 SE3       30.19S
WALLA WALLA    SUNNY     65  47  52 SW10      30.20S
PENDLETON, OR  SUNNY     65  45  48 CALM      30.21S
$$



USA.gov is the U.S. government's official web portal to all federal, state and local government web resources and services.